Flag for U.S.A. Weather past 2 weeks in Scottsdale, Arizona, U.S.A.

Now
34 °F

Sunny.


Feels Like: 34 °F
Forecast: 34 / 53 °F
Wind: No wind

Location: Scottsdale Airport

Current Time: Dec 27, 2014 at 8:56:50 AM

Latest Report: Dec 27, 2014 at 7:53 AM


Visibility: 10 mi

Pressure: 30.24 "Hg

Humidity: 64%

Dew point: 23 °F

Location of ScottsdaleLocation

Historic Weather in Scottsdale — Graph

°F

Scottsdale temperature yesterday

Maximum temperature yesterday: 53 °F (at 2:53 PM)
Minimum temperature yesterday: 34 °F (at 6:53 AM)
Average temperature yesterday: 44 °F

Past Weeks' High & Low Weather Summary

 TemperatureHumidityPressure
High75 °F (Dec 12, 12:53 PM)100% (Dec 13, 5:02 AM)30.24 "Hg (Dec 13, 5:02 AM)
Low33 °F (Dec 27, 5:53 AM)11% (Dec 23, 3:53 PM)29.68 "Hg (Dec 25, 3:53 PM)
Average53 °F59%30.02 "Hg
* Reported Dec 12 7:53 AM — Dec 27 7:53 AM, Scottsdale, Weather by CustomWeather, © 2014

Note: Actual official high and low records may vary slightly from our data, if they occured in-between our weather recording intervals... More about our weather records

Advertising

Scottsdale weather history for previous 24 hours

 ConditionsComfort  
Time TempWeatherWind HumidityBarometerVisibility
7:53 AM
Dec 27
34 °FSunny.No wind64%30.24 "Hg10 mi
6:53 AM34 °FClear.No wind64%30.21 "Hg10 mi
5:53 AM33 °FClear.No wind66%30.18 "Hg10 mi
4:53 AM34 °FClear.No wind67%30.15 "Hg10 mi
3:53 AM34 °FClear.No wind67%30.14 "Hg10 mi
2:53 AM36 °FClear.3 mph62%30.12 "Hg10 mi
1:53 AM37 °FClear.No wind62%30.11 "Hg10 mi
12:53 AM37 °FClear.No wind65%30.10 "Hg10 mi
11:53 PM
Dec 26
38 °FClear.No wind58%30.10 "Hg10 mi
10:53 PM40 °FClear.No wind53%30.10 "Hg10 mi
9:53 PM43 °FClear.No wind45%30.10 "Hg10 mi
8:53 PM43 °FClear.5 mph47%30.09 "Hg10 mi
7:53 PM45 °FClear.No wind42%30.08 "Hg10 mi
6:53 PM47 °FClear.No wind36%30.07 "Hg10 mi
5:53 PM50 °FClear.No wind28%30.04 "Hg10 mi
4:53 PM52 °FSunny.5 mph24%30.02 "Hg10 mi
3:53 PM53 °FSunny.7 mph23%30.01 "Hg10 mi
2:53 PM53 °FSunny.8 mph23%30.00 "Hg10 mi
1:53 PM52 °FSunny.3 mph24%29.99 "Hg10 mi
12:53 PM51 °FSunny.No wind26%30.00 "Hg10 mi
11:53 AM49 °FSunny.3 mph31%30.02 "Hg10 mi
10:53 AM46 °FSunny.No wind34%30.03 "Hg10 mi
9:53 AM45 °FSunny.No wind35%30.02 "Hg10 mi
8:53 AM40 °FSunny.No wind45%30.00 "Hg10 mi
Weather by CustomWeather, © 2014

See weather overviewHow to use our weather pages